• Join FlightAware (Why Join?)
  • Login
  • US Flag 
08:58PM EST


 

Airport Tracker/Info


-or-


 

Live Flight TrackerFlight Track Log ✈ SWA2336 ✈ 08-Apr-2013 ✈ KDAL - KLBB

Flight Track Log - Related Links

Times and Time Zones

All times are in EDT time to prevent confusion due to time zone crossing. See the SWA2336 flight status page for this flight to view local times or setup timezone preferences in your user account.

Time Position Orientation Groundspeed Altitude Reporting Facility
EDT Latitude Longitude Course Direction KTS MPH feet Rate Location/Type
02:38PM 32.8000 -96.7833 129° Southeast 211 243 4,800  Level Dallas / Fort Worth TRACON
02:39PM 32.7333 -96.7667 168° South 234 269 7,900 2,713 Climbing Dallas / Fort Worth TRACON
02:40PM 32.6833 -96.7667 180° South 248 285 10,000 1,103 Climbing Dallas / Fort Worth TRACON
02:41PM 32.5881 -96.8661 221° Southwest 362 417 10,400 1,617 Climbing Fort Worth Center
02:42PM 32.5967 -96.9647 276° West 322 371 13,800 3,350 Climbing Fort Worth Center
02:43PM 32.6472 -97.0753 299° West 308 354 17,100 3,100 Climbing Fort Worth Center
02:44PM 32.6953 -97.1667 302° West 345 397 20,000 2,650 Climbing Fort Worth Center
02:45PM 32.7539 -97.2850 301° West 369 425 22,400 2,400 Climbing Fort Worth Center
02:46PM 32.8103 -97.3986 301° West 391 450 24,800 2,350 Climbing Fort Worth Center
02:47PM 32.8667 -97.5097 301° West 398 458 27,100 1,850 Climbing Fort Worth Center
02:48PM 32.9189 -97.6114 301° West 393 452 28,500 1,300 Climbing Fort Worth Center
02:49PM 32.9750 -97.7303 299° West 404 465 29,700 1,600 Climbing Fort Worth Center
02:50PM 33.0017 -97.8592 284° West 404 465 31,700 1,950 Climbing Fort Worth Center
02:51PM 33.0200 -97.9858 280° West 399 459 33,600 1,600 Climbing Fort Worth Center
02:52PM 33.0400 -98.1122 281° West 388 447 34,900 1,200 Climbing Fort Worth Center
02:53PM 33.0622 -98.2489 281° West 388 447 36,000 550 Climbing Fort Worth Center
02:54PM 33.0800 -98.3803 279° West 393 452 36,000  Level Fort Worth Center
02:55PM 33.0939 -98.4872 279° West 393 452 36,000  Level Fort Worth Center
02:56PM 33.1156 -98.6214 281° West 393 452 36,000  Level Fort Worth Center
02:57PM 33.1372 -98.7506 281° West 398 458 36,000  Level Fort Worth Center
02:58PM 33.1547 -98.8775 279° West 398 458 36,000  Level Fort Worth Center
02:59PM 33.1739 -99.0042 280° West 393 452 36,000 -50 Level Fort Worth Center
03:00PM 33.1994 -99.1314 284° West 393 452 35,900 -600 Descending Fort Worth Center
03:01PM 33.2206 -99.2583 281° West 393 452 34,800 -950 Descending Fort Worth Center
03:02PM 33.2436 -99.3806 283° West 393 452 34,000 -400 Descending Fort Worth Center
03:03PM 33.2689 -99.5078 283° West 393 452 34,000 -500 Level Fort Worth Center
03:04PM 33.2936 -99.6353 283° West 393 452 33,000 -1,000 Descending Fort Worth Center
03:05PM 33.3164 -99.7600 282° West 393 452 32,000 -950 Descending Fort Worth Center
03:06PM 33.3411 -99.8875 283° West 393 452 31,100 -950 Descending Fort Worth Center
03:07PM 33.3617 -100.0150 281° West 393 452 30,100 -1,000 Descending Fort Worth Center
03:08PM 33.3858 -100.1450 283° West 393 452 29,100 -950 Descending Fort Worth Center
03:09PM 33.4100 -100.2753 283° West 393 452 28,200 -950 Descending Fort Worth Center
03:10PM 33.4322 -100.4053 282° West 398 458 27,200 -1,450 Descending Fort Worth Center
03:11PM 33.4561 -100.5306 283° West 392 451 25,300 -2,300 Descending Fort Worth Center
03:12PM 33.4761 -100.6483 282° West 386 444 22,600 -2,830 Descending Fort Worth Center
03:13PM 33.4900 -100.7536 279° West 366 421 20,300 -2,684 Descending Fort Worth Center
03:13PM 33.5031 -100.8161 284° West 363 418 19,200 -2,432 Descending Fort Worth Center
03:14PM 33.5217 -100.8942 286° West 357 411 17,300 -2,239 Descending Fort Worth Center
03:14PM 33.5269 -100.9317 280° West 343 395 16,700 -1,700 Descending Fort Worth Center
03:15PM 33.5417 -100.9997 285° West 336 387 15,600 -2,000 Descending Fort Worth Center
03:15PM 33.5431 -101.0297 273° West 318 366 14,900 -2,200 Descending Fort Worth Center
03:16PM 33.5575 -101.1025 283° West 319 367 13,400 -1,612 Descending Fort Worth Center
03:16PM 33.5625 -101.1500 277° West 308 354 13,100 -1,900 Descending Fort Worth Center
03:17PM 33.5756 -101.1981 288° West 307 353 11,500 -2,800 Descending Fort Worth Center
03:17PM 33.5783 -101.2431 274° West 295 339 10,300 -1,600 Descending Fort Worth Center
03:18PM 33.5914 -101.2958 287° West 299 344 9,900 -873 Descending Fort Worth Center
03:18PM 33.5944 -101.3308 276° West 285 328 9,500 -1,400 Descending Fort Worth Center
03:19PM 33.6053 -101.3839 284° West 283 326 8,500 -1,791 Descending Fort Worth Center
03:19PM 33.6103 -101.4239 279° West 260 299 7,500 -1,800 Descending Fort Worth Center
03:20PM 33.6194 -101.4667 284° West 276 318 6,700 -1,700 Descending Fort Worth Center
03:20PM 33.6242 -101.5144 277° West 271 312 5,800 -1,700 Descending Fort Worth Center
03:21PM 33.6350 -101.5597 286° West 276 318 5,000 -873 Descending Fort Worth Center
03:21PM 33.6381 -101.5922 276° West 264 304 5,000 -100 Level Fort Worth Center
03:22PM 33.6472 -101.6303 286° West 261 300 4,900  Descending Fort Worth Center
03:22PM 33.6503 -101.6678 276° West 220 253 5,000 -100 Climbing Fort Worth Center
03:23PM 33.6594 -101.7056 286° West 223 257 4,800 -492 Descending Fort Worth Center
03:23PM 33.6628 -101.7283 280° West 175 201 4,500 -800 Descending Fort Worth Center
03:24PM 33.6619 -101.7531 268° West 177 204 4,000 -787 Descending Fort Worth Center
03:24PM 33.6611 -101.7731 267° West 125 144 3,700 -700 Descending Fort Worth Center
03:25PM 33.6622 -101.8006 273° West 144 166 3,300 -247 Descending Fort Worth Center
03:26PM 33.6606 -101.8478 268° West 144 166 3,300 15,350 Level Fort Worth Center
03:27PM 33.6589 -101.8978 268° West 144 166 34,000 30,700 Climbing Fort Worth Center